• Processing (Info)

  • MPEC 2000-E13 : 2000 DN8

    The following Minor Planet Electronic Circular may be linked-to from your own Web pages, but must not otherwise be redistributed electronically.

    A form allowing access to any MPEC is at the bottom of this page.


    Read MPEC 2000-E12 Read MPEC 2000-E14


    M.P.E.C. 2000-E13                                Issued 2000 Mar. 2, 18:18 UT
    
         The Minor Planet Electronic Circulars contain information on unusual
             minor planets and routine data on comets.  They are published
       on behalf of Commission 20 of the International Astronomical Union by the
              Minor Planet Center, Smithsonian Astrophysical Observatory,
                              Cambridge, MA 02138, U.S.A.
    
                 Prepared using the Tamkin Foundation Computer Network
    
                 BMARSDEN@CFA.HARVARD.EDU or GWILLIAMS@CFA.HARVARD.EDU
              URL http://cfa-www.harvard.edu/iau/mpc.html  ISSN 1523-6714
    
                                       2000 DN8
    
    Observations:
         K00D08N* C2000 02 27.35445 12 31 04.69 +36 39 32.6          17.3        704
         K00D08N  C2000 02 27.36789 12 31 03.76 +36 39 53.9          17.7        704
         K00D08N  C2000 02 27.38129 12 31 02.88 +36 40 16.0          17.9        704
         K00D08N  C2000 02 27.39681 12 31 01.91 +36 40 40.1          18.1        704
         K00D08N  C2000 02 27.41202 12 31 00.79 +36 41 04.1          17.6        704
         K00D08N  C2000 02 28.00942 12 30 22.30 +36 56 52.4                      046
         K00D08N  C2000 02 28.01451 12 30 21.95 +36 57 01.3          17.6 R      046
         K00D08N  C2000 02 28.01593 12 30 21.88 +36 57 03.3                      046
         K00D08N  C2000 02 28.01704 12 30 21.80 +36 57 05.5                      046
         K00D08N  C2000 02 28.01836 12 30 21.69 +36 57 07.3          17.8 R      046
         K00D08N  C2000 02 28.02212 12 30 21.40 +36 57 13.8          17.4 R      046
         K00D08N  C2000 02 28.02763 12 30 21.10 +36 57 22.1          17.4 R      118
         K00D08N  C2000 02 28.03368 12 30 20.65 +36 57 31.2                      118
         K00D08N  C2000 02 28.03716 12 30 20.38 +36 57 36.7                      118
         K00D08N  C2000 02 28.24424 12 30 07.17 +37 03 04.3          18.6 R      858
         K00D08N  C2000 02 28.24657 12 30 06.95 +37 03 07.7          19.0 R      858
         K00D08N  C2000 02 28.24924 12 30 06.85 +37 03 11.7          18.8 R      858
         K00D08N  C2000 02 28.26944 12 30 05.24 +37 03 46.3          19.2 R      850
         K00D08N  C2000 02 28.27847 12 30 04.62 +37 04 00.9          19.3 R      850
         K00D08N  C2000 02 28.28825 12 30 04.01 +37 04 15.0          19.3 R      850
         K00D08N  C2000 02 28.30139 12 30 02.96 +37 04 36.4          19.9 R      850
         K00D08N  C2000 02 28.31181 12 30 02.29 +37 04 52.0          19.3 R      850
         K00D08N 1C2000 02 28.71945 12 29 35.05 +37 15 37.3                      413
         K00D08N 1C2000 02 28.72134 12 29 34.83 +37 15 40.3                      413
         K00D08N 1C2000 02 28.72292 12 29 34.80 +37 15 42.0                      413
         K00D08N  C2000 02 28.90171 12 29 23.30 +37 20 11.2                      557
         K00D08N  C2000 02 28.90638 12 29 22.94 +37 20 18.4                      557
         K00D08N  C2000 02 28.90870 12 29 22.80 +37 20 22.4          19.1 V      557
         K00D08N  C2000 02 29.13017 12 29 07.38 +37 26 06.0                      118
         K00D08N  C2000 02 29.13192 12 29 07.14 +37 26 09.1                      118
         K00D08N  C2000 02 29.13751 12 29 06.85 +37 26 17.4          18.0 R      118
         K00D08N  C2000 02 29.30475 12 28 55.94 +37 30 37.6          18.6        704
         K00D08N  C2000 02 29.31815 12 28 55.01 +37 30 58.1          18.3        704
         K00D08N  C2000 02 29.33155 12 28 54.04 +37 31 19.1          18.2        704
         K00D08N  C2000 02 29.34494 12 28 53.06 +37 31 39.6          18.0        704
         K00D08N  C2000 02 29.35834 12 28 52.13 +37 32 00.8          18.4        704
         K00D08N  C2000 03 01.75221 12 27 14.80 +38 07 10.8          18.5 V      402
         K00D08N  C2000 03 01.75347 12 27 14.71 +38 07 13.4                      402
         K00D08N  C2000 03 01.75472 12 27 14.56 +38 07 14.8                      402
         K00D08N  C2000 03 01.75598 12 27 14.49 +38 07 17.0                      402
         K00D08N  C2000 03 02.31366 12 26 34.95 +38 21 03.9          18.4 V      651
         K00D08N  C2000 03 02.31637 12 26 34.75 +38 21 07.8          18.4 V      651
         K00D08N  C2000 03 02.31913 12 26 34.56 +38 21 12.1          18.3 V      651
    
    Observer details:
    046 Klet.  Observers J. Ticha, M. Tichy.  0.57-m f/5.2 reflector + CCD.
    118 Modra.  Observers A. Galad, L. Kornos, P. Koleny.  0.6-m f/5.5 reflector
        + CCD.
    402 Dynic Astronomical Observatory.  Observer A. Sugie.  0.60-m f/3.7 reflector
        + CCD.
    413 Siding Spring.  Observer R. H. McNaught.  1.0-m f/8 reflector + CCD.
    557 Ondrejov.  Observer L. Sarounova.  0.65-m f/3.6 reflector + CCD.
    651 Grasslands Observatory, Tucson.  Observer J. E. McGaha.  0.62-m f/5.1
        reflector + CCD.
    704 Lincoln Laboratory ETS, New Mexico.  Observers M. Blythe, F. Shelly,
        M. Bezpalko, M. Elowitz, R. Huber.  Measurers J. Stuart, H. Viggh,
        R. Sayer, J. B. Evans.  1.0-m f/2.15 reflector + CCD.
    850 Cordell-Lorenz Observatory, Sewanee.  Observers D. T. Durig, J. L. Wilson.
        0.3-m f/5.75 Schmidt-Cassegrain + CCD.
    858 Tebbutt Observatory, Edgewood.  Observer F. B. Zoltowski.  0.3-m f/3.3
        Schmidt-Cassegrain + CCD.
    
    Orbital elements:
    2000 DN8
    Epoch 2000 Feb. 26.0 TT = JDT 2451600.5                 Williams
    M  82.65930              (2000.0)            P               Q
    n   0.39179926     Peri.  268.56632     +0.58737036     -0.69152566
    a   1.8496674      Node   134.91080     +0.74089942     +0.66851345
    e   0.3908710      Incl.   36.41998     -0.32567484     +0.27364579
    P   2.52           H   16.2           G   0.15
    From 43 observations 2000 Feb. 27-Mar. 2.
    
    Ephemeris:
    2000 DN8                 a,e,i = 1.85, 0.39, 36                  q = 1.1267
    Date    TT    R. A. (2000) Decl.     Delta      r     Elong.  Phase     V
    2000 02 26    12 32.49   +36 02.9    1.156    2.029   141.8    17.5    19.0
    2000 03 07    12 20.64   +40 09.1    1.199    2.072   141.8    17.3    19.1
    2000 03 17    12 06.69   +43 09.1    1.266    2.113   137.9    18.4    19.3
    2000 03 27    11 52.82   +44 57.5    1.354    2.152   131.9    20.2    19.5
    2000 04 06    11 41.06   +45 40.7    1.458    2.190   124.9    22.0    19.8
    2000 04 16    11 32.74   +45 31.0    1.575    2.226   117.6    23.5    20.0
    2000 04 26    11 28.30   +44 42.6    1.701    2.260   110.6    24.6    20.3
    2000 05 06    11 27.57   +43 27.0    1.833    2.293   103.8    25.3    20.5
    2000 05 16    11 30.08   +41 52.7    1.967    2.323    97.3    25.6    20.7
    2000 05 26    11 35.27   +40 06.1    2.103    2.352    91.1    25.5    20.8
    2000 06 05    11 42.59   +38 11.2    2.237    2.379    85.3    25.2    21.0
    2000 06 15    11 51.62   +36 10.9    2.369    2.404    79.7    24.6    21.1
    2000 06 25    12 01.99   +34 07.2    2.497    2.428    74.3    23.8    21.2
    2000 07 05    12 13.42   +32 01.5    2.619    2.450    69.2    22.8    21.3
    2000 07 15    12 25.71   +29 55.0    2.736    2.470    64.2    21.8    21.4
    
    Gareth V. Williams           (C) Copyright 2000 MPC           M.P.E.C. 2000-E13
    

    Read MPEC 2000-E12 Read MPEC 2000-E14


    MPEC number:

    Enter an MPEC number in one of the following forms:

    • 1997-B01 (the full form)
    • J97B01 (the packed version of the full form)
    • B01 (the abbreviated form)